EW8682 Weather Reports


Display with metric or nautical units.
time (UTC)temp
F
wind
direction
speed
MPH
gust
MPH
rain 1hr
in
rain 24hr
in
rain mn
in
humidity
%
barometer
mb
20260506231536 76 170 3.0 8.0 0.00 0.00 0.00 44 1007.4
20260506230036 77 180 1.0 8.0 0.00 0.00 0.00 43 1007.6
20260506224536 76 175 2.0 8.0 0.00 0.00 0.00 44 1007.7
20260506223031 76 172 3.0 8.0 0.00 0.00 0.00 44 1007.9
20260506221531 76 242 1.0 9.0 0.00 0.00 0.00 44 1008.1
20260506220030 76 217 3.0 8.0 0.00 0.00 0.00 43 1008.3
20260506214523 75 190 0.0 7.0 0.00 0.00 0.00 44 1008.5
20260506213020 75 182 3.0 7.0 0.00 0.00 0.00 44 1008.7
20260506211518 75 173 2.0 8.0 0.00 0.00 0.00 43 1008.8
20260506210016 75 179 2.0 6.0 0.00 0.00 0.00 43 1009.0
20260506204513 74 202 3.0 7.0 0.00 0.00 0.00 43 1009.1
20260506203010 74 194 3.0 6.0 0.00 0.00 0.00 44 1009.2
20260506201509 74 197 3.0 6.0 0.00 0.00 0.00 45 1009.4
20260506200004 73 276 3.0 9.0 0.00 0.00 0.00 45 1009.7
20260506194501 71 197 2.0 5.0 0.00 0.00 0.00 47 1009.8
20260506193058 70 234 1.0 7.0 0.00 0.00 0.00 48 1010.0
20260506191558 70 222 3.0 9.0 0.00 0.00 0.00 49 1010.2
20260506190051 69 187 0.0 5.0 0.00 0.00 0.00 52 1010.2
20260506184552 68 192 1.0 7.0 0.00 0.00 0.00 51 1010.3
20260506183044 67 200 0.0 4.0 0.00 0.00 0.00 53 1010.4
20260506181540 66 194 2.0 6.0 0.00 0.00 0.00 55 1010.6
20260506180036 65 179 1.0 6.0 0.00 0.00 0.00 55 1010.6
20260506174531 64 208 2.0 6.0 0.00 0.00 0.00 57 1010.7
20260506173028 63 215 1.0 5.0 0.00 0.00 0.00 58 1010.8
20260506171527 61 190 1.0 4.0 0.00 0.00 0.00 60 1010.7
20260506170022 61 180 1.0 6.0 0.00 0.00 0.00 62 1010.6
20260506164519 60 181 1.0 4.0 0.00 0.00 0.00 63 1010.6
20260506163030 59 198 1.0 3.0 0.00 0.00 0.00 65 1010.5
20260506161513 58 223 1.0 3.0 0.00 0.00 0.00 67 1010.7
20260506160014 57 189 1.0 5.0 0.00 0.00 0.00 68 1010.6
20260506154506 56 205 0.0 3.0 0.00 0.00 0.00 72 1010.7
20260506153001 55 248 0.0 2.0 0.00 0.00 0.00 74 1010.6
20260506151559 54 329 0.0 2.0 0.00 0.00 0.00 77 1010.7
20260506150055 53 346 0.0 2.0 0.00 0.00 0.00 79 1010.8
20260506144553 52 347 0.0 1.0 0.00 0.00 0.00 83 1010.8
20260506143051 50 346 1.0 2.0 0.00 0.00 0.00 86 1010.7
20260506141554 48 344 1.0 3.0 0.00 0.00 0.00 87 1010.7
20260506140054 48 343 0.0 2.0 0.00 0.00 0.00 86 1010.5
20260506134544 48 343 1.0 2.0 0.00 0.00 0.00 85 1010.3
20260506133042 47 343 1.0 2.0 0.00 0.00 0.00 84 1010.3
20260506131540 48 343 1.0 2.0 0.00 0.00 0.00 82 1010.2
20260506130036 49 343 0.0 2.0 0.00 0.00 0.00 81 1010.0
20260506124534 49 342 0.0 3.0 0.00 0.00 0.00 79 1009.9
20260506123033 50 338 0.0 4.0 0.00 0.00 0.00 78 1009.7
20260506121533 50 323 0.0 3.0 0.00 0.00 0.00 78 1009.7
20260506120034 50 321 1.0 3.0 0.00 0.00 0.00 77 1009.7
20260506114531 51 321 0.0 3.0 0.00 0.00 0.00 76 1009.7
20260506113031 51 320 0.0 2.0 0.00 0.00 0.00 76 1009.6
20260506111530 51 333 1.0 3.0 0.00 0.00 0.00 75 1009.5
20260506110029 51 28 1.0 4.0 0.00 0.00 0.00 75 1009.5
20260506104527 51 319 1.0 3.0 0.00 0.00 0.00 74 1009.6
20260506103027 52 355 0.0 4.0 0.00 0.00 0.00 74 1009.6
20260506101525 52 325 1.0 5.0 0.00 0.00 0.00 73 1009.7
20260506100022 51 360 2.0 5.0 0.00 0.00 0.00 74 1009.6
20260506094517 51 325 1.0 6.0 0.00 0.00 0.00 74 1009.7
20260506093027 51 322 2.0 6.0 0.00 0.00 0.00 74 1009.9
20260506091515 51 355 1.0 6.0 0.00 0.00 0.00 76 1009.8
20260506090012 50 55 0.0 3.0 0.00 0.00 0.00 77 1009.8
20260506084515 49 49 1.0 3.0 0.00 0.00 0.00 79 1010.0
20260506083010 50 49 0.0 4.0 0.00 0.00 0.00 77 1010.1
20260506081509 50 49 1.0 4.0 0.00 0.00 0.00 77 1010.1
20260506073007 51 40 0.0 1.0 0.00 0.00 0.00 76 1010.2
20260506071501 51 42 1.0 3.0 0.00 0.00 0.00 76 1010.0
20260506061603 52 49 0.0 4.0 0.00 0.00 0.00 75 1009.3
20260506044547 50 169 1.0 2.0 0.00 0.01 0.00 81 1008.7
20260506043051 50 169 1.0 3.0 0.00 0.01 0.00 81 1008.6
20260506041559 51 170 1.0 2.0 0.00 0.01 0.00 80 1008.3
20260506040047 52 170 1.0 4.0 0.00 0.01 0.00 78 1008.1
20260506034541 53 171 1.0 3.0 0.00 0.01 0.00 77 1008.0
20260506033042 54 172 0.0 3.0 0.00 0.01 0.00 74 1007.8
20260506031537 55 172 1.0 3.0 0.00 0.01 0.00 71 1007.6
20260506030035 58 172 1.0 2.0 0.00 0.01 0.00 67 1007.3
20260506024533 59 172 0.0 0.0 0.00 0.01 0.00 63 1007.0
20260506023034 60 172 0.0 1.0 0.00 0.01 0.00 61 1006.9
20260506021532 60 172 0.0 1.0 0.00 0.01 0.00 63 1006.6
20260506014531 60 171 2.0 6.0 0.00 0.01 0.00 60 1006.5
20260506013031 60 175 1.0 5.0 0.00 0.01 0.00 61 1006.5
20260506011533 61 188 2.0 5.0 0.00 0.01 0.00 59 1006.4
20260506010030 61 167 3.0 6.0 0.00 0.01 0.00 57 1006.3
20260506004527 61 180 3.0 6.0 0.00 0.01 0.00 57 1006.3
20260506003027 62 169 3.0 7.0 0.00 0.01 0.00 55 1006.3
20260506001527 62 179 3.0 7.0 0.00 0.01 0.00 55 1006.2
20260506000042 62 173 4.0 7.0 0.00 0.01 0.00 54 1006.0
20260505234525 61 174 3.0 6.0 0.00 0.01 0.00 53 1006.0
20260505233024 62 174 2.0 7.0 0.00 0.01 0.00 52 1006.2